Flag for Brazil Weather past 2 weeks in São Paulo, São Paulo, Brazil

Now
66 °F

Haze.


Feels Like: 66 °F
Forecast: 54 / 81 °F
Wind: 5 mph from South

Location: Sao Paulo Airport

Current Time: Aug 4, 2015 at 9:49:06 PM

Latest Report: Aug 4, 2015 at 9:00 PM


Visibility: 3 mi

Pressure: 30.21 "Hg (27.62 "Hg at 765m altitude)

Humidity: 73%

Dew point: 57 °F

Location of São PauloLocation

Historic Weather in São Paulo — Graph

°F

São Paulo temperature yesterday

Maximum temperature yesterday: 81 °F (at 2:00 PM)
Minimum temperature yesterday: 59 °F (at 6:00 AM)
Average temperature yesterday: 70 °F

Past Weeks' High & Low Weather Summary

 TemperatureHumidityPressure
High81 °F (Aug 1, 3:00 PM)100% (Jul 28, 8:00 AM)30.33 "Hg (Jul 28, 8:00 AM)
Low36 °F (Jul 28, 8:00 AM)27% (Jul 28, 3:00 PM)30.04 "Hg (Jul 21, 1:00 AM)
Average64 °F68%30.19 "Hg
* Reported Jul 20 9:00 PM — Aug 4 9:00 PM, São Paulo, Weather by CustomWeather, © 2015

Note: Actual official high and low records may vary slightly from our data, if they occured in-between our weather recording intervals... More about our weather records

Advertising

São Paulo weather history for previous 24 hours

 ConditionsComfort  
Time TempWeatherWind HumidityBarometerVisibility
9:00 PM
Tue, Aug 4
66 °FHaze.5 mph73%30.21 "Hg3 mi
8:00 PM70 °FClear.5 mph64%30.21 "Hg6 mi
7:00 PM72 °FClear.6 mph50%30.18 "Hg10 mi
6:00 PM73 °FClear.8 mph38%30.18 "Hg10 mi
5:00 PM75 °FClear.10 mph39%30.18 "Hg10 mi
4:00 PM79 °FSunny.8 mph34%30.18 "Hg10 mi
3:00 PM81 °FSunny.7 mph28%30.18 "Hg10 mi
2:00 PM81 °FSunny.6 mph28%30.18 "Hg10 mi
1:00 PM79 °FSunny.5 mph30%30.21 "Hg10 mi
12:00 PM79 °FSunny.5 mph34%30.24 "Hg10 mi
11:00 AM75 °FSunny.5 mph41%30.27 "Hg10 mi
10:00 AM72 °FSunny.7 mph50%30.27 "Hg10 mi
9:00 AM68 °FSunny.5 mph56%30.24 "Hg10 mi
8:00 AM66 °FSunny.3 mph60%30.24 "Hg10 mi
7:00 AM61 °FSunny.No wind68%30.21 "Hg10 mi
6:00 AM61 °FClear.No wind68%30.18 "Hg5 mi
5:00 AM63 °FClear.3 mph64%30.18 "Hg10 mi
4:00 AM63 °FClear.3 mph73%30.15 "Hg10 mi
3:00 AM63 °FClear.7 mph73%30.18 "Hg10 mi
2:00 AM64 °FClear.No wind64%30.18 "Hg10 mi
1:00 AM64 °FClear.No wind60%30.18 "Hg10 mi
12:00 AM70 °FClear.2 mph50%30.18 "Hg10 mi
11:00 PM
Mon, Aug 3
72 °FClear.2 mph47%30.21 "Hg10 mi
10:00 PM68 °FClear.2 mph53%30.18 "Hg10 mi
9:00 PM70 °FClear.2 mph50%30.18 "Hg10 mi
Weather by CustomWeather, © 2015

See weather overviewHow to use our weather pages